This is the latest recevied weather packets stored in our database for station/object 4S6DRJ-13. If no packets are shown the sender has not sent any weather packets the latest 10 day(s).
| Time | Temp. | Humidity | Pressure | Rain* | Wind** | Luminosity | Snow |
|---|---|---|---|---|---|---|---|
| 1787916178 | 30° C | 76% | 1007.7 hPa | 0 mm | 1.79 m/s, 245° | 295 W/m² | - |
| 1787916117 | 30° C | 76% | 1007.7 hPa | 0 mm | 2.24 m/s, 303° | 302 W/m² | - |
| 1787916056 | 30° C | 76% | 1007.6 hPa | 0 mm | 1.79 m/s, 264° | 313 W/m² | - |
| 1787915995 | 30° C | 75% | 1007.7 hPa | 0 mm | 3.58 m/s, 130° | 305 W/m² | - |
| 1787915934 | 30.56° C | 75% | 1007.6 hPa | 0 mm | 3.58 m/s, 6° | 320 W/m² | - |
| 1787915873 | 30.56° C | 75% | 1007.5 hPa | 0 mm | 1.79 m/s, 182° | 307 W/m² | - |
| 1787915812 | 30.56° C | 75% | 1007.6 hPa | 0 mm | 1.79 m/s, 185° | 310 W/m² | - |
| 1787915751 | 30.56° C | 75% | 1007.6 hPa | 0 mm | 2.24 m/s, 234° | 171 W/m² | - |
| 1787915690 | 30.56° C | 76% | 1007.6 hPa | 0 mm | 1.79 m/s, 288° | 276 W/m² | - |
| 1787915629 | 30° C | 76% | 1007.5 hPa | 0 mm | 1.79 m/s, 279° | 288 W/m² | - |
| 1787915568 | 30° C | 76% | 1007.6 hPa | 0 mm | 0.89 m/s, 340° | 304 W/m² | - |
| 1787915507 | 30° C | 76% | 1007.5 hPa | 0 mm | 1.34 m/s, 319° | 314 W/m² | - |
| 1787915446 | 30° C | 76% | 1007.6 hPa | 0 mm | 2.68 m/s, 239° | 326 W/m² | - |
| 1787915386 | 30° C | 75% | 1007.6 hPa | 0 mm | 2.68 m/s, 207° | 350 W/m² | - |
| 1787915324 | 30° C | 76% | 1007.5 hPa | 0 mm | 0.89 m/s, 157° | 281 W/m² | - |
| 1787915263 | 30° C | 76% | 1007.4 hPa | 0 mm | 0.89 m/s, 184° | 194 W/m² | - |
| 1787915202 | 30° C | 77% | 1007.6 hPa | 0 mm | 1.79 m/s, 157° | 270 W/m² | - |
| 1787915141 | 29.44° C | 77% | 1007.6 hPa | 0 mm | 2.24 m/s, 63° | 327 W/m² | - |
| 1787915080 | 29.44° C | 78% | 1007.6 hPa | 0 mm | 1.34 m/s, 38° | 362 W/m² | - |
| 1787915019 | 29.44° C | 78% | 1007.5 hPa | 0 mm | 1.79 m/s, 192° | 423 W/m² | - |
| 1787914958 | 29.44° C | 78% | 1007.7 hPa | 0 mm | 1.79 m/s, 243° | 406 W/m² | - |
| 1787914897 | 29.44° C | 77% | 1007.6 hPa | 0 mm | 3.58 m/s, 274° | 202 W/m² | - |
| 1787914836 | 29.44° C | 77% | 1007.6 hPa | 0 mm | 1.79 m/s, 228° | 171 W/m² | - |
| 1787914775 | 29.44° C | 77% | 1007.7 hPa | 0 mm | 2.24 m/s, 272° | 167 W/m² | - |
| 1787914714 | 30° C | 78% | 1007.5 hPa | 0 mm | 1.34 m/s, 121° | 167 W/m² | - |
* Rain latest hour (hover to see other rain measurements)
** Current wind speed in m/s (hover to see current wind gust speed)